カタログに戻る

STARLINK-1017

運用中通信VLEO
NORAD 44723·PAYLOAD·🇺🇸 United States

打ち上げ Nov 11, 2019 から Cape Canaveral Space Force Station

Loading…

次のパス (今後24時間)

TLE

最新Source: CelesTrak SupGP

元期: Sep 14, 2026, 20:52 UTC

1 44723C 19074L   26257.86993056  .00025720  00000+0  65433-3 0  2575
2 44723  53.0452   8.3876 0003418 337.3441 236.2344 15.39005411    18

AllMySatでSTARLINK-1017をリアルタイム追跡

Download on the App Store